Regional Weather Roundup
Issued by NWS

Home | Current Version | Previous Version | Text Only | Print | Product List | Glossary On
Versions: 1 2 3 4 5 6 7 8 9 10 11 12 13 14 15 16 17 18 19 20 21 22 23 24 25 26 27 28 29 30 31 32 33 34 35 36 37 38 39 40 41 42 43 44 45 46 47 48 49 50
000
ASUS43 KMKX 192221
RWRWI

WISCONSIN REGIONAL WEATHER ROUNDUP
NATIONAL WEATHER SERVICE MILWAUKEE/SULLIVAN WI
500 PM CDT SAT APR 19 2014

NOTE: "FAIR" INDICATES FEW OR NO CLOUDS BELOW 12,000 FEET WITH NO
SIGNIFICANT WEATHER AND/OR OBSTRUCTIONS TO VISIBILITY.

WIZ001-002-006>008-014>016-023>028-192300-
NORTHWEST WISCONSIN

CITY           SKY/WX    TMP DP  RH WIND       PRES   REMARKS
SUPERIOR ARPT  PTSUNNY   35  32  87 NE5       30.04S WCI  31
ASHLAND        CLOUDY    44  42  93 S5        30.03F
HAYWARD        LGT RAIN  46  41  82 S5        30.05S
SIREN          LGT RAIN  52  40  63 SE9       29.99F
RICE LAKE      LGT RAIN  51  44  78 E7        30.06F
LADYSMITH      LGT RAIN  58  39  49 S6        30.10R
EAU CLAIRE     LGT RAIN  64  37  36 S18       30.03F
MENOMONIE      CLOUDY    63  37  38 S12G17    30.03F
NEW RICHMOND   CLOUDY    59  41  52 S8        30.03S
OSCEOLA        CLOUDY    60  44  56 S15G21    30.01F
$$

WIZ003>005-009-010-017-018-192300-
NORTH CENTRAL WISCONSIN

CITY           SKY/WX    TMP DP  RH WIND       PRES   REMARKS
WOODRUFF       CLOUDY    52  31  43 S10G23    30.10R
RHINELANDER    MOSUNNY   52  30  43 S8G23     30.10F
EAGLE RIVER    MOSUNNY   52  26  35 S13G23    30.09F
LAND O LAKES   PTSUNNY   52  27  37 S14G24    30.09F
PHILLIPS       CLOUDY    54  35  48 S9        30.09R
TOMAHAWK       SUNNY     55  33  42 S6G21     30.09F
MEDFORD        PTSUNNY   58  40  50 S16G22    30.08F
MERRILL        SUNNY     59  35  39 CALM      30.12F
$$

WIZ029-030-035-036-043>047-192300-
CENTRAL WISCONSIN

CITY           SKY/WX    TMP DP  RH WIND       PRES   REMARKS
WAUSAU         SUNNY     61  34  36 SE16G26   30.11F
MOSINEE        SUNNY     61  36  39 S16G24    30.14F
MARSHFIELD     MOSUNNY   63  37  38 SE18      30.11F
STEVENS POINT  SUNNY     61  35  37 S15G23    30.15F
WAUPACA        SUNNY     63  36  36 S12       30.18F
WAUTOMA        SUNNY     65  36  34 SE15G21   30.17F
WISC RAPIDS    SUNNY     65  35  33 S13       30.14F
CAMP DOUGLAS   MOSUNNY   67  36  31 S15G24    30.12F
$$

WIZ011>013-019>022-031-037>040-048>050-192300-
NORTHEAST WISCONSIN

CITY           SKY/WX    TMP DP  RH WIND       PRES   REMARKS
ANTIGO         SUNNY     52  37  56 S21       30.16F
STURGEON BAY   PTSUNNY   46  30  53 S12G21    30.27F
GREEN BAY      MOSUNNY   53  37  54 S15       30.23F
MANITOWOC      MOSUNNY   48  35  60 S17       30.27F
APPLETON       PTSUNNY   55  32  41 SE15G23   30.22F
CLINTONVILLE   MOSUNNY   55  34  44 SE15      30.21S
OSHKOSH        PTSUNNY   58  34  40 SE14G22   30.20F
$$

WIZ032>034-041-042-053>061-192300-
SOUTHWEST WISCONSIN

CITY           SKY/WX    TMP DP  RH WIND       PRES   REMARKS
LA CROSSE      MOSUNNY   70  37  29 S16G23    30.08F
SPARTA         MOSUNNY   68  34  28 S15       30.11F
VIROQUA        FAIR      66  37  33 S14G24    30.12F
BOSCOBEL       MOSUNNY   70  35  27 S15G23    30.13F
PRAIRIE DU CHI MOSUNNY   71  34  25 SE12G21   30.10F
PLATTEVILLE    FAIR      68  35  29 SE16      30.16F
$$

WIZ056-057-062-063-064-067-068-192300-
SOUTH CENTRAL WISCONSIN

CITY           SKY/WX    TMP DP  RH WIND       PRES   REMARKS
BARABOO/DELLS  MOSUNNY   66  34  30 S17       30.15F
LONE ROCK      MOSUNNY   69  39  33 S17G24    30.14F
WATERTOWN      MOSUNNY   64  35  34 SE13      30.20F
MADISON        PTSUNNY   67  36  31 S20       30.18F
MIDDLETON      FAIR      68  32  25 S14G23    30.17F
MONROE         MOSUNNY   66  35  30 S18       30.17F
JANESVILLE     SUNNY     68  30  24 S18G24    30.19F
$$

WIZ051-052-058>065-066-070>072-192300-
SOUTHEAST WISCONSIN

CITY           SKY/WX    TMP DP  RH WIND       PRES   REMARKS
MILWAUKEE      PTSUNNY   52  36  54 SE9       30.26F
WAUKESHA       MOSUNNY   57  34  41 SE13      30.24F
MILWAUKEE/TIMM SUNNY     55  30  38 SE8       30.26F
RACINE         MOSUNNY   52  36  54 SE10      30.27F
BURLINGTON     MOSUNNY   62  32  33 S10       30.22F
KENOSHA        MOSUNNY   55  38  52 SE9       30.25F
FOND DU LAC    PTSUNNY   59  37  44 SE17      30.21F
SHEBOYGAN      MOSUNNY   50  36  58 S12       30.26F
WEST BEND      PTSUNNY   54  30  40 SE12      30.24F
JUNEAU         PTSUNNY   59  29  32 SE15      30.22F
$$

LSZ147-162-192300-
LAKE SUPERIOR

STATION/POSITION TIME  TEMP    WIND        PRES    WAVE
                       AIR SEA DIR/SP/G            HT/PER
                 (UTC) (F)     (DEG/KT/KT) (MB)    (FT/S)
DEVILS ISLAND    2200   38     130/  8/  9 1017.8F
PORT WING        2100   35      30/  3/  7 1017.3S
SAXON HARBOR     2100           CALM  / 23 1017.3R
$$

LMZ867-665-643>646-192300-
LAKE MICHIGAN

STATION/POSITION TIME  TEMP    WIND        PRES    WAVE
                       AIR SEA DIR/SP/G            HT/PER
                 (UTC) (F)     (DEG/KT/KT) (MB)    (FT/S)
NORTHPORT PIER   2100   35     140/  6/  8 1025.7F
SISTER BAY       2109   47     160/  9/ 12   N/A
KEWAUNEE LAKESHO 2200   40     180/ 12/ 15 1025.5F
SHEBOYGAN LAKESH 2200   41     180/ 13/ 14 1025.6F
PORT WASHINGTON  2100   43     170/  4/  6 1026.4F
MILWAUKEE LAKESH 2200   39      60/  5/  6   N/A
KENOSHA   LAKESH 2200   48     120/  2/  3   N/A
$$

TC  - TEMPERATURE IN CELSIUS
VSB - VISIBILITY IN STATUTE MILES
WCI - WIND CHILL INDEX
HX  - HEAT INDEX




USA.gov is the U.S. government's official web portal to all federal, state and local government web resources and services.